Content
SEND FEEDBACK

Daily
Averages
Monthly
Summary
United States of America

VIRGINIA, ILLINOIS


Home > North America > United States > Illinois
Elevation: 620 feet     Latitude: 39 57N     Longitude: 090 13W

WEATHER
 
SELECT A DAY
Number of Records: 331,985;   Date Range: 7/17/01 - 10/21/14
 
SHARE

PRINT THIS DATA

[ ← Previous Day ]
WEATHER ALMANAC - JANUARY 31, 2013
[ Next Day → ]
[ °C ]   °F
Weather ElementAverageHighLow
Temperature22.7 °F28.4 °F (5:55 am)11.1 °F (9:55 pm)
Dewpoint13.1 °F20.7 °F (6:35 am)-0.8 °F (8:35 pm)
Humidity66.5 %75 % (6:35 am)57 % (8:35 pm)
Barometer30.03 in30.31 in (9:35 pm)29.88 in (12:35 am)
Wind Speed17.8 mph25.3 mph (4:35 pm)
Wind Gust33.4 mph (3:35 pm)
Weather ElementAverage
Visibility9.8 mi
Wind DirectionWNW (279.4 °)

Weather ElementTotal
Precipitation---
Heating Degree Days45.3 (Base 65)
Averaged from 65 records on January 31, 2013
WEATHER CONDITIONS BREAKOUT
WIND DIRECTION BREAKOUT
WEATHER BY HOUR - JANUARY 31, 2013
[ °C ]   °F
Local TimeTemperatureDewpointHumidityBarometerVisibilityWind DirectionWind SpeedGust SpeedPrecipitationEventsConditions
12:35 AM24.8 °F17.4 °F74 %29.88 in10.0 miWest (270°)12.7 mph21.9 mphMostly Cloudy
12:55 AM24.8 °F17.2 °F73 %29.88 in10.0 miWest (260°)9.2 mphMostly Cloudy
1:15 AM25.5 °F17.8 °F72 %29.88 in10.0 miWest (260°)9.2 mphMostly Cloudy
1:35 AM26.2 °F17.6 °F70 %29.89 in10.0 miWSW (250°)12.7 mphOvercast
1:55 AM26.8 °F18.3 °F70 %29.88 in10.0 miWSW (250°)13.8 mph17.3 mphOvercast
2:15 AM27.3 °F18.3 °F69 %29.88 in10.0 miWSW (250°)11.5 mphOvercast
2:35 AM27.5 °F16.5 °F63 %29.89 in10.0 miWest (260°)16.1 mphOvercast
2:55 AM27.9 °F16.3 °F62 %29.89 in10.0 miWest (260°)17.3 mph20.7 mphOvercast
3:15 AM27.5 °F17.1 °F65 %29.88 in10.0 miWest (260°)17.3 mphOvercast
3:35 AM27.5 °F17.6 °F66 %29.88 in10.0 miWSW (240°)15.0 mph19.6 mphOvercast
3:55 AM27.5 °F18.0 °F67 %29.89 in10.0 miWest (260°)15.0 mph20.7 mphOvercast
4:15 AM27.5 °F18.0 °F67 %29.88 in10.0 miWSW (250°)12.7 mph19.6 mphOvercast
4:35 AM27.9 °F18.0 °F66 %29.88 in10.0 miWest (260°)17.3 mph20.7 mphOvercast
4:55 AM28.0 °F18.3 °F67 %29.88 in10.0 miWest (260°)15.0 mph20.7 mphOvercast
5:15 AM27.9 °F18.9 °F69 %29.89 in10.0 miWest (260°)15.0 mph23.0 mphOvercast
5:35 AM27.9 °F19.9 °F72 %29.89 in10.0 miWest (260°)16.1 mph23.0 mphSnowLight Snow
5:55 AM28.4 °F19.4 °F69 %29.90 in10.0 miWSW (250°)13.8 mph18.4 mphSnowLight Snow
6:15 AM27.9 °F20.5 °F74 %29.90 in10.0 miWest (270°)18.4 mph23.0 mphSnowLight Snow
6:35 AM27.5 °F20.7 °F75 %29.91 in10.0 miWest (270°)20.7 mph27.6 mphOvercast
6:55 AM27.5 °F18.7 °F69 %29.91 in10.0 miWest (270°)20.7 mph25.3 mphOvercast
7:15 AM27.3 °F18.1 °F68 %29.92 in10.0 miWest (270°)17.3 mph24.2 mphOvercast
7:35 AM26.6 °F17.2 °F68 %29.93 in10.0 miWest (270°)18.4 mph24.2 mphMostly Cloudy
7:55 AM27.3 °F17.1 °F65 %29.93 in10.0 miWest (270°)18.4 mph26.5 mphMostly Cloudy
8:15 AM27.5 °F18.0 °F67 %29.95 in10.0 miWNW (300°)13.8 mph25.3 mphOvercast
8:35 AM26.1 °F19.0 °F75 %29.95 in10.0 miWNW (300°)13.8 mph18.4 mphOvercast
8:55 AM25.3 °F17.8 °F73 %29.97 in10.0 miWNW (290°)15.0 mphMostly Cloudy
9:15 AM26.1 °F17.2 °F69 %29.97 in10.0 miWNW (290°)17.3 mph26.5 mphMostly Cloudy
9:35 AM26.4 °F17.4 °F69 %29.98 in10.0 miWNW (290°)16.1 mphMostly Cloudy
9:55 AM26.2 °F16.5 °F67 %30.00 in10.0 miWest (270°)17.3 mph26.5 mphOvercast
10:15 AM26.6 °F16.3 °F65 %30.01 in10.0 miWest (260°)17.3 mph24.2 mphOvercast
10:35 AM26.2 °F15.8 °F65 %30.01 in10.0 miWest (270°)19.6 mph26.5 mphOvercast
10:55 AM26.4 °F16.7 °F67 %30.02 in10.0 miWest (280°)20.7 mph26.5 mphOvercast
11:15 AM25.5 °F16.7 °F69 %30.02 in10.0 miWNW (290°)16.1 mph20.7 mphOvercast
11:35 AM26.2 °F17.4 °F69 %30.01 in10.0 miWest (280°)16.1 mph20.7 mphOvercast
11:55 AM26.8 °F16.5 °F65 %30.01 in10.0 miWNW (300°)16.1 mphMostly Cloudy
12:15 PM27.1 °F16.9 °F65 %30.02 in10.0 miWNW (290°)16.1 mph23.0 mphOvercast
12:35 PM25.9 °F15.4 °F65 %30.02 in10.0 miWNW (300°)16.1 mph26.5 mphOvercast
12:55 PM25.2 °F14.2 °F63 %30.02 in10.0 miWNW (290°)17.3 mph25.3 mphOvercast
1:15 PM24.8 °F13.6 °F63 %30.02 in10.0 miWNW (290°)17.3 mph25.3 mphMostly Cloudy
1:35 PM24.3 °F13.6 °F64 %30.03 in10.0 miWNW (300°)16.1 mph25.3 mphMostly Cloudy
1:55 PM23.9 °F13.5 °F64 %30.03 in10.0 miWNW (300°)18.4 mph27.6 mphScattered Clouds
2:15 PM23.4 °F11.8 °F61 %30.04 in10.0 miWNW (300°)18.4 mph28.8 mphScattered Clouds
2:35 PM21.9 °F10.9 °F63 %30.06 in10.0 miWNW (300°)18.4 mph28.8 mphMostly Cloudy
2:55 PM21.7 °F10.2 °F61 %30.08 in10.0 miWNW (300°)18.4 mph31.1 mphOvercast
3:15 PM20.3 °F9.3 °F63 %30.10 in10.0 miWNW (290°)23.0 mph32.2 mphOvercast
3:35 PM19.6 °F8.6 °F62 %30.11 in10.0 miWNW (290°)24.2 mph33.4 mphOvercast
3:55 PM19.0 °F8.2 °F63 %30.12 in10.0 miWNW (290°)19.6 mph26.5 mphMostly Cloudy
4:15 PM18.1 °F7.5 °F63 %30.13 in10.0 miWNW (290°)18.4 mph27.6 mphScattered Clouds
4:35 PM17.4 °F7.7 °F66 %30.14 in10.0 miWNW (290°)25.3 mph29.9 mphScattered Clouds
4:55 PM17.6 °F8.1 °F66 %30.15 in10.0 miWest (280°)23.0 mph28.8 mphMostly Cloudy
5:15 PM17.1 °F9.0 °F71 %30.16 in7.0 miWest (280°)21.9 mph28.8 mphOvercast
5:35 PM16.7 °F7.3 °F67 %30.17 in10.0 miWNW (290°)19.6 mph24.2 mphOvercast
5:55 PM16.3 °F7.2 °F67 %30.18 in10.0 miWNW (300°)17.3 mph28.8 mphOvercast
6:15 PM16.0 °F6.1 °F65 %30.19 in10.0 miWNW (290°)18.4 mph27.6 mphMostly Cloudy
6:35 PM15.8 °F9.0 °F74 %30.20 in5.0 miWNW (290°)23.0 mph27.6 mphSnowLight Snow
6:55 PM14.9 °F4.1 °F62 %30.21 in10.0 miWNW (290°)20.7 mph27.6 mphScattered Clouds
7:15 PM14.0 °F3.7 °F64 %30.23 in10.0 miWNW (290°)24.2 mph29.9 mphScattered Clouds
7:35 PM13.5 °F3.9 °F66 %30.24 in10.0 miWNW (290°)18.4 mph29.9 mphScattered Clouds
7:55 PM12.9 °F3.2 °F65 %30.26 in10.0 miWNW (300°)19.6 mph29.9 mphScattered Clouds
8:15 PM12.7 °F1.4 °F61 %30.26 in10.0 miWNW (300°)24.2 mph33.4 mphScattered Clouds
8:35 PM11.8 °F-0.8 °F57 %30.28 in10.0 miWNW (290°)20.7 mph33.4 mphScattered Clouds
8:55 PM12.2 °F-0.4 °F57 %30.28 in10.0 miWNW (300°)19.6 mph29.9 mphScattered Clouds
9:15 PM11.3 °F1.8 °F66 %30.30 in10.0 miWest (280°)23.0 mph29.9 mphClear
9:35 PM11.3 °F0.3 °F61 %30.31 in10.0 miWNW (290°)20.7 mph26.5 mphClear
9:55 PM11.1 °F2.3 °F68 %30.31 in7.0 miWest (280°)25.3 mph29.9 mphScattered Clouds
Hourly data recorded from KIJX, located miles away from Virginia, Illinois







STORIES FROM OUR PARTNERS